Dundee, United Kingdom

4:41 AM BST on June 28, 2017 (GMT +0100)
Dundee

Weather History for EGPN - November, 2013

Change the Weather History Date:

Sunday, November 3, 2013

  Actual Average Record
Temperature  
Mean Temperature 44 °F -  
Max Temperature 50 °F 46 °F 60 °F (2011)
Min Temperature 39 °F 40 °F 28 °F (2008)
Degree Days  
Heating Degree Days 20    
Moisture  
Dew Point 35 °F    
Average Humidity 70    
Maximum Humidity 87    
Minimum Humidity 50    
Precipitation  
Precipitation 0.00 in - - ()
Sea Level Pressure  
Sea Level Pressure 29.18 in    
Wind  
Wind Speed 15 mph ()    
Max Wind Speed 23 mph    
Max Gust Speed 38 mph    
Visibility 6.2 miles    
Events      
Averages and records for this station are not official NWS values.
T = Trace of Precipitation, MM = Missing Value Source: Averaged Metar Reports

Daily Weather History Graph

Daily Weather History Graph

Search for Another Location

Airport or City:

Trip Planner

Search our weather history database for the weather conditions in past years. The results will help you decide how hot, cold, wet, or windy it might be!

Date:

Astronomy

Nov. 03, 2013 Rise Set
Actual Time 7:25 AM GMT 4:25 PM GMT
Civil Twilight 6:44 AM GMT 5:05 PM GMT
Nautical Twilight 5:59 AM GMT 5:50 PM GMT
Astronomical Twilight 5:15 AM GMT 6:34 PM GMT
Moon 7:13 AM GMT (11/3) 4:24 PM GMT (11/3)
Length of Visible Light 10h 21m
Length of Day
9h 00m
Waning Crescent, 0% of the Moon is Illuminated
Nov 3
Waning Crescent
Nov 3
New
Nov 10
First Quarter
Nov 17
Full
Nov 25
Last Quarter

Hourly Weather History & Observations

Time (GMT) Temp. Windchill Dew Point Humidity Pressure Visibility Wind Dir Wind Speed Gust Speed Precip Events Conditions
8:50 AM 46.4 °F 39.2 °F 37.4 °F 71% 29.09 in 6.2 mi West 18.4 mph 29.9 mph N/A   Scattered Clouds
9:20 AM 46.4 °F 39.8 °F 37.4 °F 71% 29.12 in 6.2 mi West 16.1 mph - N/A   Partly Cloudy
9:50 AM 46.4 °F 39.0 °F 35.6 °F 66% 29.12 in 6.2 mi West 19.6 mph - N/A   Partly Cloudy
10:20 AM 46.4 °F 38.3 °F 35.6 °F 66% 29.12 in 6.2 mi West 23.0 mph - N/A   Partly Cloudy
10:50 AM 46.4 °F 39.5 °F 35.6 °F 66% 29.15 in 6.2 mi West 17.3 mph - N/A   Partly Cloudy
11:20 AM 46.4 °F 39.0 °F 35.6 °F 66% 29.15 in 6.2 mi WNW 19.6 mph - N/A   Partly Cloudy
11:50 AM 48.2 °F - 33.8 °F 58% 29.15 in 6.2 mi West 20.7 mph 32.2 mph N/A   Partly Cloudy
12:20 PM 50.0 °F - 33.8 °F 54% 29.15 in 6.2 mi West 20.7 mph 38.0 mph N/A   Partly Cloudy
12:50 PM 50.0 °F - 33.8 °F 54% 29.18 in 6.2 mi West 21.9 mph 38.0 mph N/A   Partly Cloudy
1:50 PM 50.0 °F - 32.0 °F 50% 29.18 in 6.2 mi West 21.9 mph - N/A   Partly Cloudy
2:20 PM 50.0 °F - 33.8 °F 54% 29.18 in 6.2 mi West 19.6 mph - N/A   Partly Cloudy
2:50 PM 50.0 °F - 33.8 °F 54% 29.18 in 6.2 mi West 18.4 mph - N/A   Partly Cloudy
3:20 PM 48.2 °F - 33.8 °F 58% 29.21 in 6.2 mi West 16.1 mph - N/A   Partly Cloudy
3:50 PM 46.4 °F 40.7 °F 35.6 °F 66% 29.21 in 6.2 mi West 12.7 mph - N/A   Partly Cloudy
4:20 PM 44.6 °F 37.4 °F 37.4 °F 76% 29.21 in 6.2 mi WSW 16.1 mph - N/A   Partly Cloudy
4:50 PM 42.8 °F 36.2 °F 35.6 °F 76% 29.21 in 6.2 mi West 12.7 mph - N/A   Partly Cloudy
5:20 PM 42.8 °F 35.4 °F 35.6 °F 76% 29.21 in 6.2 mi West 15.0 mph - N/A   Partly Cloudy
5:50 PM 41.0 °F 33.5 °F 35.6 °F 81% 29.21 in 6.2 mi West 13.8 mph - N/A   Partly Cloudy
6:20 PM 42.8 °F 34.3 °F 37.4 °F 81% 29.21 in - WSW 19.6 mph - N/A   Clear
6:50 PM 42.8 °F 35.4 °F 37.4 °F 81% 29.21 in - West 15.0 mph - N/A   Clear
7:20 PM 41.0 °F 33.1 °F 37.4 °F 87% 29.21 in - West 15.0 mph - N/A   Clear
7:50 PM 39.2 °F 31.6 °F 35.6 °F 87% 29.21 in - West 12.7 mph - N/A   Clear
8:20 PM 39.2 °F 32.0 °F 33.8 °F 81% 29.21 in - West 11.5 mph - N/A   Clear
8:50 PM 39.2 °F 32.5 °F 33.8 °F 81% 29.21 in - West 10.4 mph - N/A   Clear
9:20 PM 39.2 °F 32.5 °F 33.8 °F 81% 29.21 in - West 10.4 mph - N/A   Clear
9:50 PM 39.2 °F 33.6 °F 33.8 °F 81% 29.21 in - West 8.1 mph - N/A   Clear